Погода в Тобольске

Погода в Тобольске : погода сейчас, прогноз погоды и архив. Всё, что Вы хотите узнать о погоде в Тобольске!

Хотите узнать прогноз погоды в Тобольске? Тогда Вам сюда: Погода в Тобольске

Поиск расширенной информации на нашем сайте:

Полезная информация:

Другие новости

Новости СМИ2

Главная страница сайта

Новости сайта

03.07.2017

Напоминаем, что на нашем специализированном сайте Метеоцентр.Азия вы можете получить высокодетализированные автоматические прогнозы погоды по пунктам России, СНГ и мира в авиационном формате (включающие направление и скорость ветра, видимость, явления погоды, количество и форму облачности, нижнюю и верхнюю границу облачности).

Рекомендуем:

Погода в Тобольске - сегодня

Время (UTC), дата Ветер
(°,м/с) 
Видим.   Явления Облачность Т
(°С)
Тd
(°С)
f(%) Тe
(°С)
Pmin
(гПа)
dP
(гПа)
Po
(мм)
O2
(г/м3)
Тmin Tmax R s Состояние
почвы
12 15.07.19 120 (ЮВ) 20000 м    10/5 600 м верхняя 
[Cu hum|Ci fib]
+29.1 +18.4 53 +44  1009  -1.4  753  270           
15 15.07.19 130 (ЮВ) 20000 м    10/0 средняя, верхняя 
[Ac lent|Ci sp]
+26.1 +17.3 58 +39  1008.5  -0.6  752  273    +30.8       
18 15.07.19 120 (ЮВ) 10 км    4/3 1000 м средняя 
[Sc diur, vesp|Ac lent]
+20.3 +15.5 74 +30  1008  -0.6  752  279           
21 15.07.19 100 (В) 10 км    3/1 1000 м верхняя 
[Sc|Ci fib]
+18.7 +15 79 +28  1007.3  -0.9  751  280           
00 16.07.19 110 (В) 20000 м    1/0 верхняя 
[Ci fib]
+18.5 +14.7 79 +27  1006.3  -0.8  750  280           
03 16.07.19 120 (ЮВ) 20000 м    4/0 верхняя 
[Ci fib]
+23.6 +15.5 60 +33  1004.9  -1.3  749  275  +17         
06 16.07.19 130 (ЮВ) 6-10{11}  20000 м    6/0 верхняя 
[Ci sp]
+28.2 +15.4 46 +38  1003.8  -1  749  270           
09 16.07.19 130 (ЮВ) 7-13{13}  20000 м    4/0 верхняя 
[Ci sp]
+31.4 +11.4 29 +35  1002.8  -1  748  268           
12 16.07.19 020 (С) 98-12{13}  0500 м    3/3 300 м верхняя 
[Sc|Ci sp]
+14.9   1002.3  -0.5  748             
15 16.07.19 тихо () {12}  20000 м    10/10 600 м 
[Sc]
+24 +18.9 73 +40  1003.5  1.1  748  273    +31.7       
18 16.07.19 260 (З) 10 км    10/10 600 м кучево-дожд. 
[Cb cap]
+21.4 +13.7 61 +28  1004.6  749  277           
21 16.07.19 260 (З) 10 км  {гроза, ливн. осадки}  10/6 600 м средняя 
[Sc diur, vesp|Ac trans]
+18.1 +13.6 75 +25  1005.2  0.6  750  281           
00 17.07.19 280 (З) 20000 м  {гроза, ливн. осадки}  4/3 600 м верхняя 
[Sc|Ci sp]
+16.2 +13.8 86 +25  1006.2  0.9  750  283           
03 17.07.19 280 (З) 20000 м    10/10 600 м кучево-дожд. 
[Cb cap]
+17.8 +14.9 83 +27  1007.3  1.1  751  281  +16.2    0.3     
06 17.07.19 250 (З) 20000 м    10/10 600 м кучево-дожд. 
[Cb cap]
+18.9 +14.1 74 +27  1007.9  0.7  752  280    +21.4  0.3     
09 17.07.19 240 (ЮЗ) 20000 м    6/6 600 м 
[Cu Sc]
+23.9 +14.1 54 +31  1007.8  752  276           
12 17.07.19 290 (З) 20000 м    6/6 600 м 
[Sc]
+22.5 +12.1 52 +26  1009.1  1.2  753  278           
15 17.07.19 310 (СЗ) 20000 м    4/3 600 м верхняя 
[Sc|Ci sp]
+20.7 +10 50 +22  1010.1  753  280    +23.9       
18 17.07.19 230 (ЮЗ) 10 км    ясно 
+12.7 +10.4 86 +16  1010.5  0.3  754  288           
21 17.07.19 200 (Ю) 10 км    ясно 
+10.1 +8.8 92 +11  1010.7  0.1  754  291           
00 18.07.19 160 (Ю) 20000 м  местами туман поземный  3/0 верхняя 
[Ci fib]
+11 +10.1 94 +13  1010.5  -0.2  753  290           
03 18.07.19 180 (Ю) 20000 м    3/0 верхняя 
[Ci sp]
+18.5 +13.1 71 +24  1010.7  0.3  754  282  +9.7         
06 18.07.19 250 (З) 20000 м    1/0 верхняя 
[Ci fib]
+22.9 +8.6 40 +23  1010.6  754  279           
09 18.07.19 240 (ЮЗ) 20000 м    8/0 верхняя 
[Ci fib]
+24.6 +8.6 36 +25  1010.4  -0.1  754  277           
12 18.07.19 240 (ЮЗ) 20000 м    8/0 средняя, верхняя 
[Ac lent|Ci fib]
+24.8 +8.8 36 +25  1010.4  -0.1  754  277           
Время (UTC), дата Ветер
(°,м/с) 
Видим.   Явления Облачность Т
(°С)
Тd
(°С)
f(%) Тe
(°С)
Pmin
(гПа)
dP
(гПа)
Po
(мм)
O2
(г/м3)
Тmin Tmax R s Состояние
почвы

Для получения пояснительной информации подведите курсор к названию столбца.

ПОГОДА в Тобольске - архив

Всё, что Вы хотите узнать о погоде в Тобольске - удобно и подробно!

Выберите нужную дату (начиная с 1 января 2018* года) и нажмите кнопку "Найти".
Будут отображены архивные сводки погоды по пункту Тобольск, начиная с указанной даты.


Отображать данные в формате CSV (для использования в таблицах Excel)


Внимание! Наш архив погоды предназначен исключительно для личного некоммерческого использования в познавательных целях. Если Вам необходимы официальные справки о состоянии погоды (для производственных, юридических, коммерческих и т.п. целей), обращайтесь в органы Росгидромета.

*Примечание: данная дата относится к архиву по метеостанциям СССР (Россия, СНГ, Балтия).
Архив по метеостанциям Зарубежной Европы и Азии (кроме Китая) хранится 10 дней, по другим регионам земного шара (Китай, Африка, Америка, Австралия, Океания) - 1 день.

Тобольск - район местоположения метеостанции


Название, широта, долгота, высота метеостанции:
Тобольск 58.2°ш. 68.2°д. 50 м над ур. моря [Российская Федерация]

Дополнительная информация

В oтличие oт бoльшинства пoгoдных сайтoв мы публикуем пoдрoбную метеoинфoрмацию в детальнoм прoфессиoнальнoм фoрмате.

Характеристики температуры и влажнoсти вoздуха измеряются на высoте 2 м в тени вдали oт зданий и деревьев.
Скoрoсть ветра измеряется на высoте 10 м (на урoвне рoста челoвека скoрoсть ветра ниже в 1.5-2 раза). Если метеoстанция нахoдится в гoрoде или в лесу, тo скoрoсть ветра занижена на 2-4 м/с пo сравнению с oткрытым местoм. Скoрoсть ветра над акватoриями крупных рек и oзёр, а также на вершинах хoлмoв на 2-5 м/с выше, чем в oбычных услoвиях.
Атмoсфернoе давление в разных тoчках местнoсти мoжет значительнo oтличаться oт давления на метеoстанции, в зависимoсти oт услoвий рельефа (при пoдъёме на 10 м давление пoнижается примернo на 1 мм рт.ст.).